Station Historical Data
Daily Summary for September 3, 2017 Units:  English    Metric   Both
« Previous Day
Next Day »
Daily Weekly Monthly Yearly Custom
  High: Low: Average:
Temperature: 80.7 °F 59.0 °F 69.5 °F
Dew Point: 64.0 °F 56.5 °F 59.8 °F
Humidity: 92% 46% 73%
Wind Speed: 2.0mph 0.0mph 0.1mph
Wind Gust: 5.0mph - -
Wind- - SW
Pressure: 30.16 in 30.09 in -
Precipitation: 0.00 in    
Historical Graphs
 
 
Tabular Data for September 3, 2017
Time Temperature Dew Point Pressure Wind Wind Speed Wind Gust Humidity Rainfall Rate (Hourly) solar Conditions
00:00 64.4 °F 60.4 °F 30.11 in Calm     87% 0.00 in WeatherDisplay:10.37 W/m2 CLR
00:05 64.3 °F 60.3 °F 30.11 in Calm     87% 0.00 in WeatherDisplay:10.37 W/m2 CLR
00:10 64.2 °F 59.9 °F 30.11 in Calm     86% 0.00 in WeatherDisplay:10.37 W/m2 CLR
00:15 64.1 °F 59.8 °F 30.11 in Calm     86% 0.00 in WeatherDisplay:10.37 W/m2 CLR
00:20 64.1 °F 59.8 °F 30.11 in Calm     86% 0.00 in WeatherDisplay:10.37 W/m2 CLR
00:25 64.0 °F 60.1 °F 30.11 in Calm     87% 0.00 in WeatherDisplay:10.37 W/m2 CLR
00:30 64.0 °F 59.7 °F 30.11 in Calm     86% 0.00 in WeatherDisplay:10.37 W/m2 CLR
00:35 63.9 °F 60.0 °F 30.11 in Calm     87% 0.00 in WeatherDisplay:10.37 W/m2 CLR
00:40 64.0 °F 60.1 °F 30.11 in Calm     87% 0.00 in WeatherDisplay:10.37 W/m2 CLR
00:50 63.9 °F 59.6 °F 30.11 in Calm     86% 0.00 in WeatherDisplay:10.37 W/m2 CLR
00:55 63.8 °F 59.9 °F 30.10 in Calm     87% 0.00 in WeatherDisplay:10.37 W/m2 CLR
01:00 63.8 °F 59.9 °F 30.10 in Calm     87% 0.00 in WeatherDisplay:10.37 W/m2 CLR
01:10 63.8 °F 59.9 °F 30.10 in Calm     87% 0.00 in WeatherDisplay:10.37 W/m2 CLR
01:15 63.8 °F 59.9 °F 30.10 in Calm     87% 0.00 in WeatherDisplay:10.37 W/m2 CLR
01:20 63.7 °F 59.8 °F 30.10 in Calm     87% 0.00 in WeatherDisplay:10.37 W/m2 CLR
01:25 63.7 °F 59.7 °F 30.10 in Calm     87% 0.00 in WeatherDisplay:10.37 W/m2 CLR
01:30 63.5 °F 59.6 °F 30.10 in Calm     87% 0.00 in WeatherDisplay:10.37 W/m2 CLR
01:40 63.3 °F 59.7 °F 30.10 in Calm     88% 0.00 in WeatherDisplay:10.37 W/m2 CLR
01:45 63.1 °F 59.5 °F 30.10 in Calm     88% 0.00 in WeatherDisplay:10.37 W/m2 CLR
01:50 62.9 °F 59.3 °F 30.09 in Calm     88% 0.00 in WeatherDisplay:10.37 W/m2 CLR
01:55 62.9 °F 59.3 °F 30.09 in Calm   1.0 mph 88% 0.00 in WeatherDisplay:10.37 W/m2 CLR
02:00 63.1 °F 59.5 °F 30.09 in Calm   1.0 mph 88% 0.00 in WeatherDisplay:10.37 W/m2 CLR
02:05 63.2 °F 59.5 °F 30.09 in Calm     88% 0.00 in WeatherDisplay:10.37 W/m2 CLR
02:10 63.2 °F 59.3 °F 30.09 in Calm     87% 0.00 in WeatherDisplay:10.37 W/m2 CLR
02:15 63.1 °F 59.2 °F 30.09 in Calm     87% 0.00 in WeatherDisplay:10.37 W/m2 CLR
02:20 63.0 °F 59.1 °F 30.09 in Calm   1.0 mph 87% 0.00 in WeatherDisplay:10.37 W/m2 CLR
02:25 63.1 °F 59.2 °F 30.09 in Calm   1.0 mph 87% 0.00 in WeatherDisplay:10.37 W/m2 CLR
02:30 63.1 °F 59.2 °F 30.09 in Calm   1.0 mph 87% 0.00 in WeatherDisplay:10.37 W/m2 CLR
02:35 63.1 °F 59.2 °F 30.09 in Calm     87% 0.00 in WeatherDisplay:10.37 W/m2 CLR
02:40 63.0 °F 59.1 °F 30.09 in Calm     87% 0.00 in WeatherDisplay:10.37 W/m2 CLR
02:45 62.9 °F 59.3 °F 30.09 in Calm     88% 0.00 in WeatherDisplay:10.37 W/m2 CLR
02:50 62.8 °F 59.2 °F 30.09 in Calm     88% 0.00 in WeatherDisplay:10.37 W/m2 CLR
02:55 62.6 °F 59.0 °F 30.09 in Calm     88% 0.00 in WeatherDisplay:10.37 W/m2 CLR
03:00 62.5 °F 58.9 °F 30.09 in Calm     88% 0.00 in WeatherDisplay:10.37 W/m2 CLR
03:10 62.6 °F 59.3 °F 30.09 in Calm     89% 0.00 in WeatherDisplay:10.37 W/m2 CLR
03:15 62.6 °F 59.0 °F 30.09 in Calm     88% 0.00 in WeatherDisplay:10.37 W/m2 CLR
03:20 62.7 °F 59.1 °F 30.09 in Calm     88% 0.00 in WeatherDisplay:10.37 W/m2 CLR
03:25 62.6 °F 59.0 °F 30.09 in Calm     88% 0.00 in WeatherDisplay:10.37 W/m2 CLR
03:30 62.5 °F 58.9 °F 30.09 in Calm     88% 0.00 in WeatherDisplay:10.37 W/m2 CLR
03:35 62.4 °F 58.8 °F 30.09 in Calm     88% 0.00 in WeatherDisplay:10.37 W/m2 CLR
03:40 62.2 °F 58.6 °F 30.09 in Calm     88% 0.00 in WeatherDisplay:10.37 W/m2 CLR
03:45 62.1 °F 58.5 °F 30.09 in Calm     88% 0.00 in WeatherDisplay:10.37 W/m2 CLR
03:50 62.0 °F 58.7 °F 30.09 in Calm     89% 0.00 in WeatherDisplay:10.37 W/m2 CLR
03:55 62.0 °F 58.7 °F 30.09 in Calm     89% 0.00 in WeatherDisplay:10.37 W/m2 CLR
04:00 61.9 °F 58.6 °F 30.09 in Calm     89% 0.00 in WeatherDisplay:10.37 W/m2 CLR
04:10 61.7 °F 58.4 °F 30.09 in Calm     89% 0.00 in WeatherDisplay:10.37 W/m2 CLR
04:15 61.6 °F 58.3 °F 30.10 in Calm     89% 0.00 in WeatherDisplay:10.37 W/m2 CLR
04:20 61.5 °F 58.3 °F 30.10 in Calm     89% 0.00 in WeatherDisplay:10.37 W/m2 CLR
04:25 61.4 °F 58.1 °F 30.10 in Calm     89% 0.00 in WeatherDisplay:10.37 W/m2 CLR
04:30 61.4 °F 58.1 °F 30.10 in Calm     89% 0.00 in WeatherDisplay:10.37 W/m2 CLR
04:35 61.3 °F 58.0 °F 30.10 in Calm     89% 0.00 in WeatherDisplay:10.37 W/m2 CLR
04:40 61.2 °F 57.9 °F 30.10 in Calm     89% 0.00 in WeatherDisplay:10.37 W/m2 CLR
04:45 61.1 °F 57.8 °F 30.10 in Calm     89% 0.00 in WeatherDisplay:10.37 W/m2 CLR
04:50 61.1 °F 57.8 °F 30.10 in Calm     89% 0.00 in WeatherDisplay:10.37 W/m2 CLR
04:55 61.0 °F 57.7 °F 30.10 in Calm     89% 0.00 in WeatherDisplay:10.37 W/m2 CLR
05:00 61.0 °F 58.0 °F 30.10 in Calm     90% 0.00 in WeatherDisplay:10.37 W/m2 CLR
05:10 60.9 °F 57.7 °F 30.10 in Calm     89% 0.00 in WeatherDisplay:10.37 W/m2 CLR
05:15 60.8 °F 57.5 °F 30.10 in Calm     89% 0.00 in WeatherDisplay:10.37 W/m2 CLR
05:20 60.7 °F 57.4 °F 30.10 in Calm     89% 0.00 in WeatherDisplay:10.37 W/m2 CLR
05:25 60.6 °F 57.7 °F 30.10 in Calm     90% 0.00 in WeatherDisplay:10.37 W/m2 CLR
05:30 60.6 °F 57.7 °F 30.10 in Calm     90% 0.00 in WeatherDisplay:10.37 W/m2 CLR
05:35 60.6 °F 57.7 °F 30.10 in Calm     90% 0.00 in WeatherDisplay:10.37 W/m2 CLR
05:40 60.6 °F 57.7 °F 30.10 in Calm     90% 0.00 in WeatherDisplay:10.37 W/m2 CLR
05:45 60.6 °F 57.6 °F 30.10 in Calm     90% 0.00 in WeatherDisplay:10.37 W/m2 CLR
05:50 60.5 °F 57.6 °F 30.11 in Calm     90% 0.00 in WeatherDisplay:10.37 W/m2 CLR
05:55 60.4 °F 57.5 °F 30.11 in Calm     90% 0.00 in WeatherDisplay:10.37 W/m2 CLR
06:00 60.3 °F 57.4 °F 30.11 in Calm     90% 0.00 in WeatherDisplay:10.37 W/m2 CLR
06:05 60.2 °F 57.3 °F 30.11 in Calm     90% 0.00 in WeatherDisplay:10.37 W/m2 CLR
06:10 60.1 °F 57.2 °F 30.11 in Calm     90% 0.00 in WeatherDisplay:10.37 W/m2 CLR
06:15 60.0 °F 57.1 °F 30.11 in Calm     90% 0.00 in WeatherDisplay:10.37 W/m2 CLR
06:20 59.9 °F 57.0 °F 30.11 in Calm     90% 0.00 in WeatherDisplay:10.37 W/m2 CLR
06:25 59.7 °F 56.8 °F 30.11 in Calm     90% 0.00 in WeatherDisplay:10.37 W/m2 CLR
06:30 59.6 °F 56.7 °F 30.11 in Calm     90% 0.00 in WeatherDisplay:10.37 W/m2 CLR
06:35 59.5 °F 56.9 °F 30.12 in Calm     91% 0.00 in WeatherDisplay:10.37 W/m2 CLR
06:40 59.4 °F 56.8 °F 30.12 in Calm     91% 0.00 in WeatherDisplay:10.37 W/m2 CLR
06:45 59.3 °F 56.7 °F 30.12 in Calm     91% 0.00 in WeatherDisplay:10.37 W/m2 CLR
06:50 59.2 °F 56.6 °F 30.12 in Calm     91% 0.00 in WeatherDisplay:10.37 W/m2 CLR
06:55 59.2 °F 56.6 °F 30.12 in Calm     91% 0.00 in WeatherDisplay:10.37 W/m2 CLR
07:00 59.1 °F 56.5 °F 30.12 in Calm     91% 0.00 in WeatherDisplay:10.37 W/m2 CLR
07:10 59.2 °F 56.5 °F 30.12 in Calm     91% 0.00 in WeatherDisplay:10.37 W/m2 CLR
07:20 59.1 °F 56.8 °F 30.13 in Calm     92% 0.00 in WeatherDisplay:10.37 W/m2 FEW
07:25 59.1 °F 56.8 °F 30.13 in Calm     92% 0.00 in WeatherDisplay:10.37 W/m2 FEW
07:30 59.1 °F 56.8 °F 30.13 in Calm     92% 0.00 in WeatherDisplay:10.37 W/m2 FEW
07:35 59.1 °F 56.8 °F 30.13 in Calm     92% 0.00 in WeatherDisplay:10.37 W/m2 FEW
07:40 59.0 °F 56.7 °F 30.13 in Calm     92% 0.00 in WeatherDisplay:10.37 W/m2 FEW
07:45 59.0 °F 56.7 °F 30.13 in Calm     92% 0.00 in WeatherDisplay:10.37 W/m2 FEW
07:50 59.1 °F 56.8 °F 30.14 in Calm     92% 0.00 in WeatherDisplay:10.37 W/m2 FEW
07:55 59.3 °F 57.0 °F 30.14 in Calm     92% 0.00 in WeatherDisplay:10.37 W/m2 FEW
08:00 59.6 °F 57.2 °F 30.14 in Calm     92% 0.00 in WeatherDisplay:10.37 W/m2 FEW
08:10 60.1 °F 57.7 °F 30.14 in Calm     92% 0.00 in WeatherDisplay:10.37 W/m2 FEW
08:15 60.3 °F 58.0 °F 30.14 in Calm     92% 0.00 in WeatherDisplay:10.37 W/m2 FEW
08:20 60.8 °F 58.4 °F 30.14 in Calm     92% 0.00 in WeatherDisplay:10.37 W/m2 FEW
08:25 61.2 °F 58.9 °F 30.14 in Calm     92% 0.00 in WeatherDisplay:10.37 W/m2 FEW
08:30 61.7 °F 59.0 °F 30.14 in Calm     91% 0.00 in WeatherDisplay:10.37 W/m2 FEW
08:40 62.4 °F 59.5 °F 30.14 in Calm     90% 0.00 in WeatherDisplay:10.37 W/m2 FEW
08:45 62.7 °F 59.7 °F 30.14 in Calm     90% 0.00 in WeatherDisplay:10.37 W/m2 FEW
08:50 63.0 °F 60.0 °F 30.14 in Calm     90% 0.00 in WeatherDisplay:10.37 W/m2 FEW
08:55 63.3 °F 60.3 °F 30.14 in Calm     90% 0.00 in WeatherDisplay:10.37 W/m2 FEW
09:00 63.6 °F 60.6 °F 30.14 in Calm     90% 0.00 in WeatherDisplay:10.37 W/m2 FEW
09:10 64.3 °F 60.7 °F 30.14 in Calm   1.0 mph 88% 0.00 in WeatherDisplay:10.37 W/m2 FEW
09:15 64.8 °F 60.8 °F 30.14 in Calm     87% 0.00 in WeatherDisplay:10.37 W/m2 FEW
09:20 65.2 °F 60.6 °F 30.14 in Calm   1.0 mph 85% 0.00 in WeatherDisplay:10.37 W/m2 SCT
09:25 65.6 °F 60.7 °F 30.15 in Calm   1.0 mph 84% 0.00 in WeatherDisplay:10.37 W/m2 SCT
09:30 66.0 °F 60.7 °F 30.14 in Calm     83% 0.00 in WeatherDisplay:10.37 W/m2 SCT
09:35 66.4 °F 60.7 °F 30.15 in Calm   1.0 mph 82% 0.00 in WeatherDisplay:10.37 W/m2 SCT
09:40 66.9 °F 60.6 °F 30.15 in Calm   1.0 mph 80% 0.00 in WeatherDisplay:10.37 W/m2 SCT
09:45 67.7 °F 61.3 °F 30.15 in Calm     80% 0.00 in WeatherDisplay:10.37 W/m2 SCT
09:50 68.3 °F 61.5 °F 30.15 in Calm   1.0 mph 79% 0.00 in WeatherDisplay:10.37 W/m2 SCT
09:55 68.8 °F 61.6 °F 30.15 in Calm   1.0 mph 78% 0.00 in WeatherDisplay:10.37 W/m2 SCT
10:00 69.4 °F 61.5 °F 30.16 in Calm   1.0 mph 76% 0.00 in WeatherDisplay:10.37 W/m2 SCT
10:10 70.2 °F 61.5 °F 30.15 in Calm   1.0 mph 74% 0.00 in WeatherDisplay:10.37 W/m2 SCT
10:15 70.5 °F 61.8 °F 30.15 in Calm   3.0 mph 74% 0.00 in WeatherDisplay:10.37 W/m2 SCT
10:20 70.7 °F 61.6 °F 30.16 in Calm   1.0 mph 73% 0.00 in WeatherDisplay:10.37 W/m2 SCT
10:25 71.0 °F 62.3 °F 30.16 in Calm   1.0 mph 74% 0.00 in WeatherDisplay:10.37 W/m2 SCT
10:30 71.5 °F 62.4 °F 30.16 in Calm   2.0 mph 73% 0.00 in WeatherDisplay:10.37 W/m2 SCT
10:35 71.8 °F 61.9 °F 30.16 in Calm   1.0 mph 71% 0.00 in WeatherDisplay:10.37 W/m2 SCT
10:40 72.0 °F 61.7 °F 30.16 in Calm     70% 0.00 in WeatherDisplay:10.37 W/m2 SCT
10:45 72.5 °F 61.8 °F 30.16 in Calm   2.0 mph 69% 0.00 in WeatherDisplay:10.37 W/m2 SCT
10:50 73.0 °F 62.6 °F 30.16 in Calm   3.0 mph 70% 0.00 in WeatherDisplay:10.37 W/m2 SCT
10:55 73.5 °F 62.3 °F 30.16 in South 1.0 mph 2.0 mph 68% 0.00 in WeatherDisplay:10.37 W/m2 SCT
11:00 73.8 °F 62.2 °F 30.16 in Calm   2.0 mph 67% 0.00 in WeatherDisplay:10.37 W/m2 SCT
11:05 74.1 °F 62.4 °F 30.16 in Calm   3.0 mph 67% 0.00 in WeatherDisplay:10.37 W/m2 SCT
11:10 74.3 °F 62.6 °F 30.16 in Calm   2.0 mph 67% 0.00 in WeatherDisplay:10.37 W/m2 SCT
11:15 74.3 °F 62.6 °F 30.16 in Calm   1.0 mph 67% 0.00 in WeatherDisplay:10.37 W/m2 SCT
11:20 74.3 °F 63.0 °F 30.16 in Calm   2.0 mph 68% 0.00 in WeatherDisplay:10.37 W/m2 SCT
11:25 74.8 °F 63.5 °F 30.16 in Calm   2.0 mph 68% 0.00 in WeatherDisplay:10.37 W/m2 SCT
11:30 75.2 °F 62.6 °F 30.16 in WSW 1.0 mph 5.0 mph 65% 0.00 in WeatherDisplay:10.37 W/m2 SCT
11:40 75.5 °F 62.0 °F 30.16 in West 1.0 mph 5.0 mph 63% 0.00 in WeatherDisplay:10.37 W/m2 SCT
11:45 75.5 °F 62.0 °F 30.16 in SW 1.0 mph 5.0 mph 63% 0.00 in WeatherDisplay:10.37 W/m2 SCT
11:50 75.7 °F 61.8 °F 30.16 in WSW 1.0 mph 5.0 mph 62% 0.00 in WeatherDisplay:10.37 W/m2 SCT
11:55 75.9 °F 63.3 °F 30.16 in Calm   2.0 mph 65% 0.00 in WeatherDisplay:10.37 W/m2 SCT
12:00 76.2 °F 61.8 °F 30.16 in SW 1.0 mph 5.0 mph 61% 0.00 in WeatherDisplay:10.37 W/m2 SCT
12:10 76.8 °F 62.8 °F 30.16 in Calm   5.0 mph 62% 0.00 in WeatherDisplay:10.37 W/m2 SCT
12:15 76.8 °F 62.3 °F 30.16 in NW 1.0 mph 2.0 mph 61% 0.00 in WeatherDisplay:10.37 W/m2 SCT
12:20 77.2 °F 62.8 °F 30.16 in Calm   3.0 mph 61% 0.00 in WeatherDisplay:10.37 W/m2 SCT
12:25 77.5 °F 61.5 °F 30.16 in Calm   5.0 mph 58% 0.00 in WeatherDisplay:10.37 W/m2 SCT
12:30 77.9 °F 62.9 °F 30.16 in Calm   2.0 mph 60% 0.00 in WeatherDisplay:10.37 W/m2 SCT
12:35 78.5 °F 62.5 °F 30.16 in NW 1.0 mph 3.0 mph 58% 0.00 in WeatherDisplay:10.37 W/m2 SCT
12:40 79.4 °F 63.3 °F 30.16 in Calm   2.0 mph 58% 0.00 in WeatherDisplay:10.37 W/m2 SCT
12:45 79.5 °F 61.4 °F 30.16 in Calm   5.0 mph 54% 0.00 in WeatherDisplay:10.37 W/m2 SCT
12:50 79.4 °F 60.8 °F 30.16 in SSW 1.0 mph 5.0 mph 53% 0.00 in WeatherDisplay:10.37 W/m2 SCT
12:55 79.6 °F 61.5 °F 30.16 in ESE 1.0 mph 2.0 mph 54% 0.00 in WeatherDisplay:10.37 W/m2 SCT
13:00 80.2 °F 62.5 °F 30.15 in WSW 1.0 mph 5.0 mph 55% 0.00 in WeatherDisplay:10.37 W/m2 SCT
13:10 80.1 °F 61.4 °F 30.15 in Calm   2.0 mph 53% 0.00 in WeatherDisplay:10.37 W/m2 SCT
13:15 79.8 °F 62.7 °F 30.15 in Calm   3.0 mph 56% 0.00 in WeatherDisplay:10.37 W/m2 SCT
13:20 79.8 °F 61.7 °F 30.15 in WSW 1.0 mph 2.0 mph 54% 0.00 in WeatherDisplay:10.37 W/m2 BKN
13:25 79.9 °F 62.3 °F 30.15 in Calm   1.0 mph 55% 0.00 in WeatherDisplay:10.37 W/m2 BKN
13:30 80.1 °F 64.0 °F 30.15 in Calm   1.0 mph 58% 0.00 in WeatherDisplay:10.37 W/m2 BKN
13:35 80.6 °F 63.5 °F 30.15 in West 1.0 mph 2.0 mph 56% 0.00 in WeatherDisplay:10.37 W/m2 BKN
13:40 80.3 °F 62.7 °F 30.15 in Calm   1.0 mph 55% 0.00 in WeatherDisplay:10.37 W/m2 BKN
13:45 80.3 °F 62.7 °F 30.14 in Calm   2.0 mph 55% 0.00 in WeatherDisplay:10.37 W/m2 BKN
13:50 80.7 °F 62.0 °F 30.14 in West 1.0 mph 2.0 mph 53% 0.00 in WeatherDisplay:10.37 W/m2 BKN
13:55 80.2 °F 62.0 °F 30.14 in Calm   3.0 mph 54% 0.00 in WeatherDisplay:10.37 W/m2 BKN
14:00 80.1 °F 62.0 °F 30.14 in Calm   1.0 mph 54% 0.00 in WeatherDisplay:10.37 W/m2 BKN
14:05 80.2 °F 63.1 °F 30.14 in Calm   3.0 mph 56% 0.00 in WeatherDisplay:10.37 W/m2 BKN
14:10 80.3 °F 61.6 °F 30.14 in ENE 1.0 mph 2.0 mph 53% 0.00 in WeatherDisplay:10.37 W/m2 BKN
14:15 80.0 °F 61.3 °F 30.14 in ESE 1.0 mph 2.0 mph 53% 0.00 in WeatherDisplay:10.37 W/m2 BKN
14:20 79.8 °F 62.2 °F 30.13 in SE 1.0 mph 5.0 mph 55% 0.00 in WeatherDisplay:10.37 W/m2 BKN
14:25 80.1 °F 62.0 °F 30.13 in Calm   3.0 mph 54% 0.00 in WeatherDisplay:10.37 W/m2 BKN
14:30 80.5 °F 61.8 °F 30.13 in West 1.0 mph 3.0 mph 53% 0.00 in WeatherDisplay:10.37 W/m2 BKN
14:35 80.7 °F 62.0 °F 30.13 in WNW 1.0 mph 2.0 mph 53% 0.00 in WeatherDisplay:10.37 W/m2 BKN
14:40 80.6 °F 60.8 °F 30.13 in Calm   5.0 mph 51% 0.00 in WeatherDisplay:10.37 W/m2 BKN
14:45 80.2 °F 61.5 °F 30.13 in Calm   5.0 mph 53% 0.00 in WeatherDisplay:10.37 W/m2 BKN
14:50 80.3 °F 61.6 °F 30.12 in Calm   1.0 mph 53% 0.00 in WeatherDisplay:10.37 W/m2 BKN
14:55 80.0 °F 59.1 °F 30.12 in West 2.0 mph 5.0 mph 49% 0.00 in WeatherDisplay:10.37 W/m2 BKN
15:00 79.8 °F 60.1 °F 30.12 in Calm   2.0 mph 51% 0.00 in WeatherDisplay:10.37 W/m2 BKN
15:10 79.8 °F 59.5 °F 30.11 in West 1.0 mph 2.0 mph 50% 0.00 in WeatherDisplay:10.37 W/m2 BKN
15:15 79.7 °F 60.0 °F 30.11 in Calm   3.0 mph 51% 0.00 in WeatherDisplay:10.37 W/m2 BKN
15:20 79.5 °F 59.3 °F 30.11 in Calm   5.0 mph 50% 0.00 in WeatherDisplay:10.37 W/m2 SCT
15:30 79.6 °F 60.4 °F 30.11 in Calm   2.0 mph 52% 0.00 in WeatherDisplay:10.37 W/m2 SCT
15:35 79.6 °F 59.4 °F 30.10 in Calm   3.0 mph 50% 0.00 in WeatherDisplay:10.37 W/m2 SCT
15:40 79.5 °F 58.1 °F 30.11 in Calm   5.0 mph 48% 0.00 in WeatherDisplay:10.37 W/m2 SCT
15:45 79.5 °F 58.1 °F 30.10 in Calm   2.0 mph 48% 0.00 in WeatherDisplay:10.37 W/m2 SCT
15:50 79.5 °F 57.5 °F 30.10 in NNW 1.0 mph 3.0 mph 47% 0.00 in WeatherDisplay:10.37 W/m2 SCT
15:55 79.4 °F 58.0 °F 30.10 in Calm   1.0 mph 48% 0.00 in WeatherDisplay:10.37 W/m2 SCT
16:00 79.4 °F 58.0 °F 30.10 in Calm   3.0 mph 48% 0.00 in WeatherDisplay:10.37 W/m2 SCT
16:05 79.4 °F 58.0 °F 30.10 in Calm   2.0 mph 48% 0.00 in WeatherDisplay:10.37 W/m2 SCT
16:10 79.4 °F 57.4 °F 30.10 in WSW 1.0 mph 5.0 mph 47% 0.00 in WeatherDisplay:10.37 W/m2 SCT
16:15 79.3 °F 56.7 °F 30.10 in Calm   3.0 mph 46% 0.00 in WeatherDisplay:10.37 W/m2 SCT
16:20 79.2 °F 58.4 °F 30.10 in SW 1.0 mph 2.0 mph 49% 0.00 in WeatherDisplay:10.37 W/m2 SCT
16:25 79.3 °F 57.9 °F 30.10 in Calm   2.0 mph 48% 0.00 in WeatherDisplay:10.37 W/m2 SCT
16:30 79.3 °F 57.9 °F 30.09 in Calm   2.0 mph 48% 0.00 in WeatherDisplay:10.37 W/m2 SCT
16:40 79.3 °F 57.9 °F 30.09 in Calm   1.0 mph 48% 0.00 in WeatherDisplay:10.37 W/m2 SCT
16:45 79.3 °F 56.7 °F 30.09 in WSW 1.0 mph 2.0 mph 46% 0.00 in WeatherDisplay:10.37 W/m2 SCT
16:50 79.3 °F 58.5 °F 30.09 in Calm   1.0 mph 49% 0.00 in WeatherDisplay:10.37 W/m2 SCT
16:55 79.5 °F 56.9 °F 30.09 in Calm   2.0 mph 46% 0.00 in WeatherDisplay:10.37 W/m2 SCT
17:00 79.7 °F 57.7 °F 30.09 in Calm   1.0 mph 47% 0.00 in WeatherDisplay:10.37 W/m2 SCT
17:10 79.6 °F 58.2 °F 30.09 in Calm   1.0 mph 48% 0.00 in WeatherDisplay:10.37 W/m2 SCT
17:15 79.5 °F 58.7 °F 30.09 in Calm     49% 0.00 in WeatherDisplay:10.37 W/m2 SCT
17:20 79.5 °F 58.1 °F 30.09 in Calm   2.0 mph 48% 0.00 in WeatherDisplay:10.37 W/m2 FEW
17:25 79.5 °F 59.8 °F 30.09 in Calm   2.0 mph 51% 0.00 in WeatherDisplay:10.37 W/m2 FEW
17:30 79.4 °F 58.0 °F 30.09 in Calm   2.0 mph 48% 0.00 in WeatherDisplay:10.37 W/m2 FEW
17:35 79.2 °F 59.0 °F 30.09 in Calm   1.0 mph 50% 0.00 in WeatherDisplay:10.37 W/m2 FEW
17:40 79.1 °F 60.0 °F 30.09 in Calm   1.0 mph 52% 0.00 in WeatherDisplay:10.37 W/m2 FEW
17:45 78.9 °F 58.7 °F 30.09 in Calm     50% 0.00 in WeatherDisplay:10.37 W/m2 FEW
17:50 78.7 °F 58.5 °F 30.09 in Calm   3.0 mph 50% 0.00 in WeatherDisplay:10.37 W/m2 FEW
17:55 78.6 °F 58.4 °F 30.09 in Calm   1.0 mph 50% 0.00 in WeatherDisplay:10.37 W/m2 FEW
18:00 78.5 °F 59.4 °F 30.09 in Calm     52% 0.00 in WeatherDisplay:10.37 W/m2 FEW
18:05 78.2 °F 59.7 °F 30.09 in Calm     53% 0.00 in WeatherDisplay:10.37 W/m2 FEW
18:10 77.9 °F 60.4 °F 30.09 in Calm     55% 0.00 in WeatherDisplay:10.37 W/m2 FEW
18:15 77.4 °F 60.0 °F 30.09 in Calm     55% 0.00 in WeatherDisplay:10.37 W/m2 FEW
18:20 77.1 °F 60.2 °F 30.09 in Calm     56% 0.00 in WeatherDisplay:10.37 W/m2 FEW
18:25 76.9 °F 60.0 °F 30.09 in Calm     56% 0.00 in WeatherDisplay:10.37 W/m2 FEW
18:30 76.8 °F 60.4 °F 30.09 in Calm     57% 0.00 in WeatherDisplay:10.37 W/m2 FEW
18:40 76.6 °F 60.8 °F 30.09 in Calm   1.0 mph 58% 0.00 in WeatherDisplay:10.37 W/m2 FEW
18:45 76.4 °F 60.0 °F 30.09 in Calm     57% 0.00 in WeatherDisplay:10.37 W/m2 FEW
18:50 76.2 °F 60.8 °F 30.09 in Calm     59% 0.00 in WeatherDisplay:10.37 W/m2 FEW
18:55 75.9 °F 61.0 °F 30.09 in Calm     60% 0.00 in WeatherDisplay:10.37 W/m2 FEW
19:00 75.6 °F 60.7 °F 30.09 in Calm   1.0 mph 60% 0.00 in WeatherDisplay:10.37 W/m2 FEW
19:05 75.3 °F 60.0 °F 30.09 in Calm   1.0 mph 59% 0.00 in WeatherDisplay:10.37 W/m2 FEW
19:10 75.0 °F 60.6 °F 30.09 in Calm   1.0 mph 61% 0.00 in WeatherDisplay:10.37 W/m2 FEW
19:15 74.6 °F 60.8 °F 30.09 in Calm   1.0 mph 62% 0.00 in WeatherDisplay:10.37 W/m2 FEW
19:20 74.4 °F 61.0 °F 30.09 in Calm     63% 0.00 in WeatherDisplay:10.37 W/m2 FEW
19:25 74.1 °F 60.7 °F 30.09 in Calm     63% 0.00 in WeatherDisplay:10.37 W/m2 FEW
19:30 73.9 °F 60.5 °F 30.09 in Calm   1.0 mph 63% 0.00 in WeatherDisplay:10.37 W/m2 FEW
19:35 73.7 °F 60.8 °F 30.09 in Calm   1.0 mph 64% 0.00 in WeatherDisplay:10.37 W/m2 FEW
19:40 73.6 °F 61.1 °F 30.09 in Calm   1.0 mph 65% 0.00 in WeatherDisplay:10.37 W/m2 FEW
19:45 73.5 °F 61.0 °F 30.09 in Calm   1.0 mph 65% 0.00 in WeatherDisplay:10.37 W/m2 FEW
19:50 73.4 °F 60.5 °F 30.09 in Calm   1.0 mph 64% 0.00 in WeatherDisplay:10.37 W/m2 FEW
19:55 73.3 °F 60.8 °F 30.09 in Calm   1.0 mph 65% 0.00 in WeatherDisplay:10.37 W/m2 FEW
20:00 73.1 °F 61.1 °F 30.09 in Calm     66% 0.00 in WeatherDisplay:10.37 W/m2 FEW
20:05 73.0 °F 61.4 °F 30.09 in Calm     67% 0.00 in WeatherDisplay:10.37 W/m2 FEW
20:10 72.8 °F 60.8 °F 30.09 in Calm     66% 0.00 in WeatherDisplay:10.37 W/m2 FEW
20:15 72.6 °F 61.4 °F 30.09 in Calm     68% 0.00 in WeatherDisplay:10.37 W/m2 FEW
20:20 72.3 °F 61.6 °F 30.09 in Calm     69% 0.00 in WeatherDisplay:10.37 W/m2 SCT
20:25 72.0 °F 61.7 °F 30.09 in Calm     70% 0.00 in WeatherDisplay:10.37 W/m2 SCT
20:30 71.6 °F 60.9 °F 30.09 in Calm     69% 0.00 in WeatherDisplay:10.37 W/m2 SCT
20:35 71.3 °F 61.0 °F 30.09 in Calm     70% 0.00 in WeatherDisplay:10.37 W/m2 SCT
20:40 71.0 °F 61.2 °F 30.09 in Calm     71% 0.00 in WeatherDisplay:10.37 W/m2 SCT
20:45 70.7 °F 60.4 °F 30.09 in Calm     70% 0.00 in WeatherDisplay:10.37 W/m2 SCT
20:50 70.5 °F 60.6 °F 30.09 in Calm     71% 0.00 in WeatherDisplay:10.37 W/m2 SCT
20:55 70.2 °F 60.7 °F 30.09 in Calm     72% 0.00 in WeatherDisplay:10.37 W/m2 SCT
21:00 70.0 °F 60.9 °F 30.09 in Calm     73% 0.00 in WeatherDisplay:10.37 W/m2 SCT
21:10 69.5 °F 60.8 °F 30.10 in Calm     74% 0.00 in WeatherDisplay:10.37 W/m2 SCT
21:15 69.3 °F 60.6 °F 30.10 in Calm     74% 0.00 in WeatherDisplay:10.37 W/m2 SCT
21:20 69.0 °F 60.7 °F 30.10 in Calm     75% 0.00 in WeatherDisplay:10.37 W/m2 FEW
21:25 68.7 °F 60.1 °F 30.10 in Calm     74% 0.00 in WeatherDisplay:10.37 W/m2 FEW
21:30 68.4 °F 59.8 °F 30.10 in Calm     74% 0.00 in WeatherDisplay:10.37 W/m2 FEW
21:40 68.0 °F 60.2 °F 30.11 in Calm     76% 0.00 in WeatherDisplay:10.37 W/m2 FEW
21:45 67.7 °F 59.9 °F 30.11 in Calm     76% 0.00 in WeatherDisplay:10.37 W/m2 FEW
21:50 67.4 °F 60.3 °F 30.11 in Calm     78% 0.00 in WeatherDisplay:10.37 W/m2 FEW
21:55 67.2 °F 60.5 °F 30.11 in Calm     79% 0.00 in WeatherDisplay:10.37 W/m2 FEW
22:00 66.9 °F 60.2 °F 30.11 in Calm     79% 0.00 in WeatherDisplay:10.37 W/m2 FEW
22:05 66.7 °F 60.0 °F 30.11 in Calm     79% 0.00 in WeatherDisplay:10.37 W/m2 FEW
22:10 66.5 °F 60.2 °F 30.11 in Calm     80% 0.00 in WeatherDisplay:10.37 W/m2 FEW
22:15 66.3 °F 60.3 °F 30.11 in Calm     81% 0.00 in WeatherDisplay:10.37 W/m2 FEW
22:20 66.1 °F 60.5 °F 30.11 in Calm     82% 0.00 in WeatherDisplay:10.37 W/m2 CLR
22:25 66.0 °F 60.3 °F 30.12 in Calm     82% 0.00 in WeatherDisplay:10.37 W/m2 CLR
22:30 65.8 °F 60.5 °F 30.12 in Calm     83% 0.00 in WeatherDisplay:10.37 W/m2 CLR
22:40 65.5 °F 60.2 °F 30.12 in Calm     83% 0.00 in WeatherDisplay:10.37 W/m2 CLR
22:45 65.3 °F 60.0 °F 30.12 in Calm     83% 0.00 in WeatherDisplay:10.37 W/m2 CLR
22:50 65.2 °F 60.2 °F 30.12 in Calm     84% 0.00 in WeatherDisplay:10.37 W/m2 CLR
22:55 65.1 °F 60.1 °F 30.12 in Calm     84% 0.00 in WeatherDisplay:10.37 W/m2 CLR
23:00 64.9 °F 60.0 °F 30.12 in Calm     84% 0.00 in WeatherDisplay:10.37 W/m2 CLR
23:05 64.7 °F 60.1 °F 30.12 in Calm     85% 0.00 in WeatherDisplay:10.37 W/m2 CLR
23:10 64.6 °F 60.0 °F 30.12 in Calm     85% 0.00 in WeatherDisplay:10.37 W/m2 CLR
23:20 64.4 °F 59.8 °F 30.12 in Calm     85% 0.00 in WeatherDisplay:10.37 W/m2 CLR
23:25 64.4 °F 59.8 °F 30.12 in Calm     85% 0.00 in WeatherDisplay:10.37 W/m2 CLR
23:30 64.2 °F 59.3 °F 30.12 in Calm     84% 0.00 in WeatherDisplay:10.37 W/m2 CLR
23:40 64.1 °F 59.5 °F 30.12 in Calm     85% 0.00 in WeatherDisplay:10.37 W/m2 CLR
23:45 64.1 °F 59.5 °F 30.12 in Calm     85% 0.00 in WeatherDisplay:10.37 W/m2 CLR
23:50 64.0 °F 59.4 °F 30.12 in Calm     85% 0.00 in WeatherDisplay:10.37 W/m2 CLR
23:55 63.9 °F 59.3 °F 30.12 in Calm     85% 0.00 in WeatherDisplay:10.37 W/m2 CLR
Piedmont Bend
Compliments of Weather Underground - 4 mb